Tiempo cada hora Alibaevskoe

Hoy, 31 Julio, Sábado

Tiempo Temperatura Precipitaciones Viento Presión Humedad
00:00 +21°C° 0 mm 2 mps 723 mmHg 60%
01:00 +21°C° 0 mm 1 mps 723 mmHg 62%
02:00 +21°C° 0 mm 1 mps 723 mmHg 64%
03:00 +21°C° 0 mm 1 mps 723 mmHg 66%
04:00 +20°C° 0 mm 1 mps 723 mmHg 69%
05:00 +22°C° 0 mm 1 mps 723 mmHg 64%
06:00 +24°C° 0 mm 1 mps 724 mmHg 59%
07:00 +25°C° 0 mm 1 mps 724 mmHg 53%
08:00 +27°C° 0 mm 2 mps 724 mmHg 47%
09:00 +30°C° 0 mm 2 mps 724 mmHg 41%
10:00 +33°C° 0 mm 3 mps 724 mmHg 35%
11:00 +33°C° 0 mm 4 mps 724 mmHg 33%
12:00 +34°C° 0 mm 4 mps 724 mmHg 31%
13:00 +35°C° 0 mm 5 mps 724 mmHg 29%
14:00 +32°C° 0.6 mm 4 mps 724 mmHg 41%
15:00 +28°C° 0.6 mm 4 mps 724 mmHg 52%
16:00 +25°C° 0.6 mm 3 mps 724 mmHg 64%
17:00 +25°C° 0 mm 3 mps 724 mmHg 63%
18:00 +25°C° 0 mm 2 mps 724 mmHg 61%
19:00 +25°C° 0 mm 2 mps 724 mmHg 60%
20:00 +25°C° 0 mm 2 mps 724 mmHg 60%
21:00 +24°C° 0 mm 2 mps 724 mmHg 60%
22:00 +23°C° 0 mm 2 mps 725 mmHg 60%
23:00 +23°C° 0 mm 2 mps 725 mmHg 59%

Mañana, 1 Agosto, Domingo

Tiempo Temperatura Precipitaciones Viento Presión Humedad
00:00 +23°C° 0 mm 2 mps 725 mmHg 58%
01:00 +23°C° 0 mm 2 mps 725 mmHg 57%
02:00 +21°C° 0 mm 2 mps 725 mmHg 60%
03:00 +21°C° 0 mm 3 mps 725 mmHg 63%
04:00 +20°C° 0 mm 3 mps 725 mmHg 65%
05:00 +22°C° 0 mm 3 mps 725 mmHg 63%
06:00 +23°C° 0 mm 4 mps 725 mmHg 60%
07:00 +25°C° 0 mm 4 mps 726 mmHg 58%
08:00 +27°C° 0 mm 5 mps 726 mmHg 51%
09:00 +29°C° 0 mm 5 mps 726 mmHg 45%
10:00 +32°C° 0 mm 6 mps 726 mmHg 38%
11:00 +33°C° 0 mm 6 mps 726 mmHg 36%
12:00 +34°C° 0 mm 7 mps 726 mmHg 34%
13:00 +34°C° 0 mm 7 mps 726 mmHg 32%
14:00 +34°C° 0 mm 7 mps 726 mmHg 30%
15:00 +35°C° 0 mm 7 mps 726 mmHg 28%
16:00 +35°C° 0 mm 6 mps 725 mmHg 27%
17:00 +33°C° 0 mm 6 mps 726 mmHg 30%
18:00 +32°C° 0 mm 5 mps 726 mmHg 34%
19:00 +29°C° 0 mm 4 mps 726 mmHg 38%
20:00 +27°C° 0 mm 3 mps 726 mmHg 42%
21:00 +25°C° 0 mm 2 mps 726 mmHg 46%
22:00 +23°C° 0 mm 2 mps 727 mmHg 51%
23:00 +23°C° 0 mm 1 mps 727 mmHg 50%

Pasado mañana, 2 Agosto, Lunes

Tiempo Temperatura Precipitaciones Viento Presión Humedad
00:00 +22°C° 0 mm 1 mps 727 mmHg 50%
01:00 +22°C° 0 mm 1 mps 727 mmHg 49%
02:00 +21°C° 0 mm 1 mps 727 mmHg 50%
03:00 +21°C° 0 mm 1 mps 727 mmHg 50%
04:00 +21°C° 0 mm 1 mps 727 mmHg 50%
05:00 +22°C° 0 mm 1 mps 728 mmHg 47%
06:00 +24°C° 0 mm 1 mps 728 mmHg 44%
07:00 +26°C° 0 mm 1 mps 728 mmHg 41%
08:00 +28°C° 0 mm 2 mps 728 mmHg 36%
09:00 +30°C° 0 mm 3 mps 728 mmHg 32%
10:00 +33°C° 0 mm 4 mps 729 mmHg 28%
11:00 +34°C° 0 mm 4 mps 728 mmHg 26%
12:00 +34°C° 0 mm 4 mps 728 mmHg 24%
13:00 +35°C° 0 mm 4 mps 728 mmHg 22%
14:00 +35°C° 0 mm 4 mps 728 mmHg 22%
15:00 +35°C° 0 mm 4 mps 728 mmHg 21%
16:00 +35°C° 0 mm 4 mps 728 mmHg 21%
17:00 +34°C° 0 mm 3 mps 727 mmHg 24%
18:00 +33°C° 0 mm 3 mps 727 mmHg 28%
19:00 +30°C° 0 mm 3 mps 727 mmHg 31%
20:00 +28°C° 0 mm 2 mps 728 mmHg 35%
21:00 +26°C° 0 mm 2 mps 728 mmHg 39%
22:00 +25°C° 0 mm 2 mps 728 mmHg 43%
23:00 +24°C° 0 mm 2 mps 728 mmHg 44%

3 Agosto, Martes

Tiempo Temperatura Precipitaciones Viento Presión Humedad
00:00 +23°C° 0 mm 2 mps 728 mmHg 46%
01:00 +22°C° 0 mm 1 mps 728 mmHg 48%
02:00 +22°C° 0 mm 1 mps 728 mmHg 48%
03:00 +22°C° 0 mm 1 mps 728 mmHg 49%
04:00 +22°C° 0 mm 1 mps 728 mmHg 49%
05:00 +23°C° 0 mm 1 mps 728 mmHg 47%
06:00 +24°C° 0 mm 1 mps 728 mmHg 44%
07:00 +24°C° 0 mm 0 mps 729 mmHg 41%
08:00 +26°C° 0 mm 0 mps 729 mmHg 36%
09:00 +28°C° 0 mm 0 mps 729 mmHg 32%
10:00 +33°C° 0 mm 1 mps 729 mmHg 27%
11:00 +34°C° 0 mm 1 mps 728 mmHg 25%
12:00 +35°C° 0 mm 1 mps 728 mmHg 23%
13:00 +36°C° 0 mm 1 mps 728 mmHg 21%
14:00 +36°C° 0 mm 2 mps 728 mmHg 23%
15:00 +35°C° 0 mm 3 mps 728 mmHg 24%
16:00 +34°C° 0 mm 4 mps 727 mmHg 26%
17:00 +33°C° 0 mm 3 mps 727 mmHg 28%
18:00 +31°C° 0 mm 2 mps 727 mmHg 30%
19:00 +30°C° 0 mm 2 mps 727 mmHg 33%
20:00 +29°C° 0 mm 2 mps 727 mmHg 34%
21:00 +28°C° 0 mm 2 mps 727 mmHg 35%
22:00 +27°C° 0 mm 2 mps 727 mmHg 36%
23:00 +27°C° 0 mm 1 mps 727 mmHg 37%

4 Agosto, Miércoles

Tiempo Temperatura Precipitaciones Viento Presión Humedad
00:00 +26°C° 0 mm 1 mps 727 mmHg 38%
01:00 +24°C° 0 mm 0 mps 727 mmHg 38%
02:00 +23°C° 0 mm 0 mps 727 mmHg 40%
03:00 +23°C° 0 mm 0 mps 727 mmHg 41%
04:00 +24°C° 0 mm 1 mps 727 mmHg 42%
05:00 +26°C° 0 mm 1 mps 727 mmHg 40%
06:00 +27°C° 0 mm 1 mps 727 mmHg 37%
07:00 +29°C° 0 mm 2 mps 728 mmHg 35%
08:00 +31°C° 0 mm 2 mps 728 mmHg 30%
09:00 +34°C° 0 mm 2 mps 728 mmHg 26%
10:00 +37°C° 0 mm 3 mps 728 mmHg 21%
11:00 +37°C° 0 mm 3 mps 727 mmHg 20%
12:00 +37°C° 0 mm 3 mps 727 mmHg 19%
13:00 +38°C° 0 mm 3 mps 727 mmHg 18%
14:00 +35°C° 0.2 mm 5 mps 727 mmHg 25%
15:00 +33°C° 0.2 mm 6 mps 727 mmHg 32%
16:00 +29°C° 0.2 mm 7 mps 726 mmHg 38%
17:00 +28°C° 0.2 mm 6 mps 726 mmHg 43%
18:00 +27°C° 0.2 mm 5 mps 726 mmHg 49%
19:00 +25°C° 0.2 mm 3 mps 726 mmHg 54%
20:00 +25°C° 0.1 mm 3 mps 726 mmHg 53%
21:00 +25°C° 0.1 mm 3 mps 726 mmHg 53%
22:00 +24°C° 0.1 mm 2 mps 726 mmHg 53%
23:00 +23°C° 0 mm 2 mps 726 mmHg 56%

5 Agosto, Jueves

Tiempo Temperatura Precipitaciones Viento Presión Humedad
00:00 +23°C° 0 mm 2 mps 726 mmHg 60%
01:00 +22°C° 0 mm 1 mps 726 mmHg 63%
02:00 +22°C° 0 mm 1 mps 725 mmHg 62%
03:00 +22°C° 0 mm 1 mps 725 mmHg 61%
04:00 +22°C° 0 mm 1 mps 725 mmHg 60%
05:00 +23°C° 0 mm 1 mps 725 mmHg 56%
06:00 +22°C° 0 mm 0 mps 725 mmHg 52%
07:00 +24°C° 0 mm 0 mps 725 mmHg 48%
08:00 +28°C° 0 mm 1 mps 725 mmHg 42%
09:00 +30°C° 0 mm 2 mps 725 mmHg 36%
10:00 +32°C° 0 mm 2 mps 725 mmHg 30%
11:00 +34°C° 0 mm 2 mps 725 mmHg 26%
12:00 +35°C° 0 mm 2 mps 725 mmHg 22%
13:00 +36°C° 0 mm 2 mps 725 mmHg 19%
14:00 +37°C° 0 mm 2 mps 724 mmHg 19%
15:00 +37°C° 0 mm 3 mps 724 mmHg 20%
16:00 +37°C° 0 mm 3 mps 724 mmHg 21%
17:00 +33°C° 0.2 mm 4 mps 724 mmHg 31%
18:00 +29°C° 0.2 mm 5 mps 724 mmHg 42%
19:00 +26°C° 0.2 mm 6 mps 724 mmHg 52%
20:00 +25°C° 0.1 mm 5 mps 723 mmHg 52%
21:00 +25°C° 0.1 mm 5 mps 723 mmHg 53%
22:00 +23°C° 0.1 mm 4 mps 723 mmHg 53%
23:00 +24°C° 0 mm 3 mps 722 mmHg 54%
Mostrar más

Necesitamos Su Consentimiento

Meteoprog y nuestros Proveedores de Servicios pueden almacenar y acceder a sus datos personales como cookies, identificadores de dispositivo u otras tecnologías similares de su dispositivo y procesar dichos datos para personalizar contenido y anuncios, además de ofrecer funciones de redes sociales y analizar el tráfico.

  • Almacenar y/o acceder a información en su dispositivo

    Se puede almacenar o acceder a cookies, identificadores de dispositivo u otra información de su dispositivo para los fines anteriormente indicados.

  • Anuncios y contenido personalizados, medición de anuncios y contenido, percepciones del público, y desarrollo de productos

    Los anuncios y el contenido pueden personalizarse en base a su perfil. Se pueden añadir más datos para personalizar mejor los anuncios y contenidos. Se puede medir el rendimiento de los anuncios y contenidos. Se puede obtener la percepción sobre el público que ha visto los anuncios y contenidos. Dichos datos pueden usarse para desarrollar o mejorar la experiencia del usuario, sistemas y software.

Al hacer clic en ‘Estoy De Acuerdo’ usted permitirá el uso de las cookies, identificadores de dispositivo, balizas web u otras tecnologías similares indicadas. Su configuración puede cambiarse desde el navegador de su dispositivo.

Para ciertos fines, los intereses legítimos pueden ser considerados por encima del consentimiento. Puede leer más sobre ello en nuestra Política de Privacidad y Cookies.